947  
ASUS44 KJAN 151510  
RWRMS  
 
MISSISSIPPI HOURLY WEATHER ROUNDUP  
NATIONAL WEATHER SERVICE JACKSON MS  
900 AM CST FRI DEC 15 2017  
 
NOTE: "FAIR: INDICATES FEW OR NO CLOUDS BELOW 12,000 FEET WITH NO  
SIGNIFICANT WEATHER AND/OR S TO VISIBILITY
.  
 
MSZ001>002-007>008-010>013-018>021-025>028-034>036-151600-  
NORTHWEST MISSISSIPPI  
 
CITY SKY/WX TMP DP RH WIND PRES REMARKS
 
BATESVILLE FAIR 31 28 89 CALM 30.27R  
CLARKSDALE SUNNY 34 32 93 NW5 30.27R WCI 30  
CLEVELAND FAIR 35 30 82 NW5 30.26R WCI 31  
GREENWOOD PTSUNNY 35 30 82 CALM 30.25R  
GREENVILLE CLOUDY 37 29 72 N6 30.26R WCI 32  
OXFORD FAIR 30 27 86 CALM 30.26R  
TUNICA N/A N/A N/A N/A NW3 30.26S  
WINONA FAIR 36 27 71 NW3 30.24R  

 
 
MSZ003>006-009-014>017-022>024-029>033-037>039-151600-  
NORTHEAST MISSISSIPPI  
 
CITY SKY/WX TMP DP RH WIND PRES REMARKS
 
ABERDEEN FAIR 34 34 100 N6 30.24R WCI 29  
COLUMBUS AFB PTSUNNY 35 30 81 NW7 30.22R WCI 29  
CORINTH CLOUDY 32 27 80 VRB3 30.22R  
GOLDN TRIANGLE PTSUNNY 36 28 73 NW6 30.23R WCI 31  
STARKVILLE FAIR 34 30 86 NW3 30.24R  
TUPELO CLOUDY 34 26 72 NW5 30.23R WCI 30  

 
 
MSZ040-058-151600-  
CENTRAL MISSISSIPPI  
 
CITY SKY/WX TMP DP RH WIND PRES REMARKS
 
JACKSON INTL CLOUDY 42 31 64 N6 30.22R  
JACKSON HAWKNS PTSUNNY 39 32 76 VRB3 30.24R  
MADISON FAIR 36 30 80 CALM 30.23R  
MERIDIAN KEY CLOUDY 40 31 70 N6 30.24R  
MERIDIAN NAS CLOUDY 39 29 67 VRB5 30.24R  
RAYMOND N/A 39 32 75 CALM 30.25R  
VICKSBURG VKS SUNNY 41 28 60 NE5 30.27R  

 
 
MSZ059>079-151600-  
SOUTH MISSISSIPPI  
 
CITY SKY/WX TMP DP RH WIND PRES REMARKS
 
HATTIESBURG CLOUDY 43 34 70 N5 30.22R  
LAUREL FAIR 40 32 72 N5 30.22R  
MCCOMB CLOUDY 43 31 62 N6 30.23R  
NATCHEZ CLOUDY 41 33 73 N5 30.27R  
PINE BELT CLOUDY 41 33 73 N8 30.22R  

 
 
MSZ080>082-151600-  
COASTAL MISSISSIPPI  
 
CITY SKY/WX TMP DP RH WIND PRES REMARKS
 
BAY ST LOUIS CLOUDY 46 37 71 N9 30.20R  
BILOXI CLOUDY 46 37 71 N12 30.18R  
PASCAGOULA CLOUDY 47 36 65 N9 30.18R  
GULFPORT CLOUDY 48 37 65 N13 30.17R  

 
 
LAZ007>009-015>016-023>026-151600-  
NORTHEAST LOUISIANA  
 
CITY SKY/WX TMP DP RH WIND PRES REMARKS
 
BASTROP FAIR 38 28 69 NW3 30.28R  
TALLULAH/VBURG CLOUDY 41 31 67 N9 30.26R  
VIDALIA N/A N/A N/A N/A MISG 30.27R  

 
 
 
CLICK HERE TO GO TO PREVIOUS BULLETINS.

The Nexlab MS Page Main Text Page